Wind_Speed
3 5 5 5 5 5 5 5 8 9 9 10 10 10 10 10 10 9 10 5 1 7 10 10 11 11 12 12 10 10 8 7 7 7 9 9 8 6 5 7 7 7 5 1 1 4 10 15 16 17 18 18 18 18 20 22 21 21 20 20 20 21 20 20 20 19 18 18 17 16 16 16 15 15 14 13 13 13 12 13 14 14 15 15 17 17
3 7 6 4 5 6 6 5 7 8 9 9 9 9 10 9 9 10 12 6 2 6 10 11 14 13 13 13 11 10 10 8 7 9 10 10 11 8 5 7 8 7 5 1 1 4 9 14 17 17 18 20 21 20 21 22 21 21 20 19 20 21 21 21 20 19 18 18 18 16 16 16 16 14 14 14 14 13 13 14 14 14 14 14 15 16
5 7 4 4 6 5 5 5 6 9 9 9 8 7 8 8 9 10 10 4 3 5 9 13 14 14 15 14 13 12 9 8 8 10 10 10 11 10 7 7 9 8 7 4 2 5 9 14 18 18 19 21 21 21 21 21 20 21 20 19 20 21 21 20 19 18 17 16 17 16 16 15 14 13 13 13 12 13 13 14 14 14 13 14 14 14
6 3 4 5 6 6 7 5 7 8 8 8 6 7 7 8 9 8 8 5 4 7 11 14 13 12 14 13 11 10 8 8 10 9 9 9 8 8 7 6 7 10 9 6 4 4 8 12 16 18 18 21 21 20 21 21 20 21 20 20 21 21 21 20 19 17 16 15 14 15 14 13 11 10 11 11 11 13 13 13 14 14 14 14 14 14
10 7 7 7 6 7 8 7 8 7 6 7 7 8 8 10 11 10 11 11 10 12 10 10 11 9 9 7 6 7 7 8 9 7 8 6 2 3 5 4 6 8 8 7 6 4 7 10 14 17 17 19 20 20 21 22 20 20 21 21 21 21 21 20 19 17 16 15 13 13 13 12 11 10 12 13 12 13 14 13 14 13 13 15 14 14
8 6 7 7 7 7 8 9 8 5 6 7 6 7 8 12 14 13 15 11 10 9 3 2 8 7 6 7 7 7 7 8 7 5 6 3 4 3 5 6 7 8 8 6 6 4 6 9 12 14 16 18 19 18 20 20 19 19 21 21 22 22 22 20 19 18 17 16 15 14 13 13 14 12 14 16 15 14 15 15 14 14 14 15 15 15
3 3 3 6 8 8 9 9 5 3 7 7 5 9 10 13 15 14 16 11 8 8 2 3 9 7 6 9 9 7 6 8 5 2 5 3 6 6 7 8 8 9 9 6 5 5 5 7 8 11 14 16 16 16 17 18 18 19 21 22 22 22 21 21 21 20 19 18 17 17 16 15 15 14 14 15 15 15 15 15 15 15 14 15 15 15
0 3 3 6 9 9 9 7 3 4 8 8 9 13 13 14 15 15 14 10 8 9 8 10 10 6 7 7 5 6 7 7 3 2 5 4 8 9 9 9 10 10 9 8 6 5 3 4 6 8 12 14 13 14 16 17 18 20 21 22 23 21 21 22 22 22 20 19 19 19 18 16 15 15 14 13 15 15 15 16 16 16 16 17 17 16
1 6 7 9 10 8 9 10 10 9 9 10 11 13 13 14 15 14 12 10 9 8 8 10 8 7 7 4 2 3 6 5 1 4 6 6 10 10 10 11 11 10 9 8 7 6 3 2 5 7 10 12 13 14 16 16 17 20 20 22 23 22 21 22 23 23 21 20 20 20 20 18 16 16 15 14 16 16 15 16 17 17 20 20 19 17
5 6 8 10 9 8 11 13 13 11 10 11 13 14 14 14 13 11 9 9 9 8 10 9 5 4 6 5 3 2 3 3 4 7 7 8 9 9 10 11 11 11 9 8 8 7 4 1 3 6 8 10 12 13 14 15 16 19 20 22 23 23 21 22 24 23 22 21 21 21 21 20 18 17 16 16 16 17 17 16 16 17 18 19 20 19
9 6 3 4 6 8 12 14 12 10 10 12 13 13 13 11 10 8 7 7 7 8 8 3 1 4 7 5 4 3 2 4 6 7 8 11 11 10 10 11 11 11 10 9 8 8 7 3 0 3 6 9 10 11 12 15 17 19 21 22 24 23 22 23 25 24 23 22 21 21 22 22 21 20 19 18 18 19 18 16 16 16 16 17 19 19
10 7 2 3 6 10 11 11 9 6 7 8 9 10 9 9 8 7 6 5 6 7 3 4 2 6 7 4 6 8 5 8 6 7 9 12 12 11 10 10 10 10 10 9 8 8 7 5 3 2 4 8 9 10 12 15 17 19 21 22 23 24 23 23 25 24 23 23 21 21 22 23 23 22 21 20 19 19 19 17 16 16 16 16 18 19
8 3 5 3 3 11 11 8 6 5 5 6 7 8 8 7 6 6 7 6 7 9 4 4 5 6 8 9 12 9 6 9 6 5 6 9 11 11 10 10 10 9 10 9 8 7 6 6 5 3 4 6 8 11 13 15 17 19 21 21 23 24 23 23 24 24 23 23 22 21 22 23 24 23 21 19 17 17 18 18 17 17 18 17 18 19
5 2 6 2 0 8 9 5 6 6 6 8 7 6 7 7 7 7 7 6 8 8 7 7 6 7 10 9 5 3 7 8 5 4 4 7 8 9 10 10 10 10 10 9 8 8 7 6 6 5 5 5 7 10 13 16 17 18 19 21 22 23 23 22 23 23 23 22 22 22 23 23 23 23 21 18 16 16 17 17 18 18 18 18 19 20
5 2 4 5 3 6 7 5 6 8 9 9 6 5 7 7 7 7 6 8 9 9 10 11 9 8 7 2 5 6 7 7 6 5 4 5 6 8 9 10 11 10 9 9 9 9 9 8 7 6 7 6 7 10 12 15 16 17 18 19 20 21 22 22 22 22 22 22 22 23 23 22 21 22 21 19 18 17 17 16 17 18 17 17 17 18
6 4 3 7 7 6 5 6 6 8 8 5 3 6 7 4 4 6 8 11 11 11 10 9 8 7 7 4 3 6 7 8 7 6 5 6 8 9 9 10 10 9 9 9 8 9 10 10 9 7 6 6 7 9 11 13 15 16 16 17 19 20 21 22 22 22 22 22 22 22 22 21 21 21 21 20 19 18 17 16 15 16 17 16 15 15
4 4 6 12 11 4 5 9 8 7 7 4 4 7 6 6 5 7 11 10 8 10 9 8 9 8 9 8 5 8 5 5 7 7 7 8 9 9 9 9 10 9 8 8 8 8 10 10 11 10 8 6 7 7 9 12 14 16 15 15 16 19 21 23 24 23 23 23 22 21 21 21 22 22 20 20 20 19 18 18 16 15 15 16 15 14
4 8 8 10 10 5 6 12 11 8 6 6 7 7 8 7 7 6 8 7 7 10 9 10 13 11 9 7 5 8 6 2 7 8 6 6 8 9 9 10 11 10 8 8 8 8 9 10 11 11 9 6 5 4 6 9 11 13 13 14 16 19 20 22 24 23 22 21 19 19 22 22 21 22 21 20 20 20 19 19 19 17 16 17 17 16
5 9 6 4 6 8 10 12 11 6 7 7 8 7 6 7 6 6 7 7 9 11 9 13 16 12 10 9 5 5 2 5 7 6 5 7 9 9 9 11 13 11 9 8 8 8 8 9 11 12 9 6 3 3 6 7 9 11 12 13 17 20 21 22 23 22 22 21 19 19 22 23 22 21 21 20 19 20 20 20 20 19 18 18 18 18
5 7 4 2 3 10 9 7 7 3 5 8 10 8 5 4 6 7 6 7 10 11 11 14 15 10 7 5 2 2 4 6 8 8 7 8 10 11 11 12 13 12 9 8 8 7 7 7 10 13 12 8 6 6 7 7 8 10 12 16 18 20 21 22 23 23 24 25 23 21 21 22 22 21 21 20 20 20 21 20 20 19 19 18 18 18
4 5 5 5 7 10 6 3 6 8 8 8 8 7 5 3 5 6 6 7 9 10 10 11 13 9 3 5 4 5 7 7 9 9 9 9 10 11 12 11 10 10 9 7 6 5 4 3 5 8 10 9 7 7 8 10 10 10 13 17 20 20 19 19 21 23 23 22 21 21 22 22 21 20 20 20 20 19 20 20 19 19 18 18 18 17
4 4 7 8 8 7 6 6 10 11 9 7 6 5 4 4 5 6 8 8 7 9 10 10 13 11 2 4 5 8 8 9 11 11 10 11 11 12 12 12 9 7 7 6 5 4 3 2 2 3 4 7 9 9 11 11 8 10 12 14 15 16 16 18 21 22 20 18 19 20 21 20 19 20 20 19 18 18 18 18 18 18 18 18 18 18
4 5 7 8 8 9 9 10 9 7 6 6 5 3 2 3 4 5 8 9 8 12 12 10 14 13 6 5 7 8 8 10 12 12 13 14 14 14 15 15 12 9 7 6 5 4 3 3 3 1 2 3 6 6 6 12 11 8 6 7 10 12 12 14 16 15 13 13 15 19 19 18 17 19 20 19 18 17 16 16 16 16 17 17 17 17
5 5 6 8 9 8 6 6 4 3 4 5 3 2 4 6 7 8 9 10 10 13 12 12 14 13 9 7 4 6 11 13 14 15 17 16 15 15 17 17 16 14 12 9 7 5 4 3 2 1 2 2 4 4 2 4 5 7 7 4 4 7 10 11 11 12 12 9 11 15 15 14 15 16 17 19 19 17 15 14 13 13 15 16 16 16
4 4 6 8 9 5 2 3 3 3 4 5 5 7 9 12 13 12 10 10 10 14 15 14 13 12 11 10 8 11 17 19 17 17 19 18 16 16 17 17 18 18 17 15 11 7 6 5 4 2 2 2 3 3 2 1 1 2 1 5 6 6 7 9 8 11 12 10 12 15 13 13 14 15 15 16 17 17 16 13 10 9 10 12 14 15
5 5 6 7 8 8 6 5 5 5 6 7 9 11 12 13 14 12 9 9 10 12 15 14 13 14 15 17 18 17 18 19 19 19 19 18 18 19 18 17 17 18 19 20 17 11 9 8 6 4 3 3 2 2 2 2 2 3 4 4 7 9 8 5 5 7 8 8 11 13 12 13 14 13 14 14 14 15 16 15 13 11 9 9 12 13
5 5 6 8 9 10 11 12 12 12 11 11 13 15 14 13 14 11 9 10 10 12 14 15 16 18 19 20 20 17 17 18 18 19 19 17 18 19 17 17 17 17 18 19 18 14 10 9 9 6 6 7 5 2 3 4 4 5 7 8 7 9 9 6 3 2 3 4 5 6 7 9 10 10 11 12 13 14 15 15 15 15 13 11 12 13
4 6 8 12 13 14 15 16 15 14 14 15 16 16 14 12 12 11 11 12 13 12 13 14 18 21 21 20 19 17 17 16 17 18 18 17 18 18 17 18 19 17 17 17 17 17 13 10 10 10 7 6 6 6 5 6 2 5 7 8 7 5 7 8 8 7 5 4 2 0 2 4 5 7 9 10 12 12 13 13 13 14 14 13 14 15
5 7 9 11 14 14 15 16 16 15 15 15 15 15 13 11 12 14 16 17 16 14 16 19 21 22 19 15 14 14 14 14 16 16 17 18 19 19 18 18 19 18 17 17 17 17 17 15 13 14 14 11 6 6 10 10 5 2 3 6 8 8 9 10 11 11 11 9 7 4 2 2 4 5 7 8 10 11 12 13 12 13 14 14 14 15
5 5 6 9 13 14 15 15 14 14 14 13 14 14 14 15 16 17 18 19 18 18 19 21 21 20 15 8 9 13 13 13 14 15 16 18 19 20 19 18 19 19 18 18 17 16 16 16 16 17 18 18 14 11 11 11 10 9 5 2 4 7 9 11 12 12 12 11 10 8 4 1 3 5 6 7 8 10 11 13 13 13 14 14 14 13
4 5 8 10 11 12 11 11 10 11 13 15 17 18 18 18 17 15 14 14 15 17 19 20 21 19 12 8 11 15 14 14 16 16 17 18 19 21 20 19 19 19 19 20 20 19 17 17 17 17 19 21 20 16 14 12 11 13 14 12 9 3 3 6 8 8 9 9 8 7 5 2 2 4 6 5 6 8 9 11 12 12 13 13 14 14
5 7 8 9 10 10 8 9 12 14 16 18 19 16 13 12 11 12 13 14 15 17 20 20 18 15 12 13 15 16 16 17 18 17 17 17 18 20 19 18 19 20 20 20 20 21 20 19 18 17 19 23 24 21 19 18 15 14 16 17 17 14 10 6 2 1 3 6 6 4 4 3 2 2 4 5 4 6 7 8 9 10 10 11 12 13
5 7 6 6 9 10 9 12 16 16 15 13 8 3 4 8 13 17 18 18 17 16 15 15 13 13 15 16 17 17 17 17 16 16 15 16 19 19 15 16 18 20 21 21 20 20 21 20 20 21 23 25 27 26 22 20 19 18 15 15 17 19 18 15 9 6 4 2 4 2 2 3 3 4 4 4 4 4 5 6 6 6 7 8 10 11
6 6 6 6 7 10 12 14 14 13 11 5 3 1 8 15 18 20 19 17 16 14 13 14 14 16 17 16 16 17 17 16 15 15 14 14 15 14 12 13 16 17 19 20 21 20 19 20 23 25 27 27 29 31 26 21 22 21 16 12 13 17 18 18 14 9 7 5 3 2 0 2 4 5 5 4 3 4 4 5 5 5 5 5 6 8
5 6 6 5 6 9 11 12 11 9 6 5 3 9 15 17 17 18 19 18 17 16 17 17 17 17 16 14 15 16 17 18 18 17 17 17 12 8 7 11 13 15 16 16 19 20 19 22 25 27 29 29 29 32 28 22 21 20 17 13 12 14 13 15 17 13 9 8 5 2 1 2 4 5 6 5 4 4 5 5 4 4 5 5 5 5
5 5 5 5 6 7 8 8 9 9 10 13 15 14 13 12 13 16 18 18 16 15 17 18 17 16 15 14 15 15 17 19 18 16 18 16 8 4 4 8 10 11 12 13 16 19 21 23 24 26 29 29 29 31 28 21 20 18 17 17 16 15 13 12 13 14 12 10 9 7 4 3 4 5 6 5 4 5 6 6 5 4 3 4 4 5
4 5 5 5 5 6 7 9 10 12 14 14 10 8 9 10 12 12 14 16 15 14 16 16 15 14 13 14 16 16 17 17 15 15 16 11 6 5 5 7 8 8 10 12 14 18 21 23 24 25 28 29 29 30 29 22 21 18 16 16 16 15 15 13 11 14 14 13 11 10 7 5 5 5 5 5 5 5 6 6 6 4 3 3 3 3
3 4 5 6 5 5 8 9 9 10 11 8 7 9 11 12 11 9 12 15 14 13 12 12 12 13 14 16 17 17 16 15 14 14 11 4 7 7 8 8 9 10 10 10 12 15 18 20 23 24 25 28 29 29 31 28 19 17 13 12 13 11 12 12 12 13 15 13 12 10 8 7 6 5 5 5 4 5 5 6 6 5 4 4 3 2
6 6 6 7 7 6 7 8 8 8 9 8 10 11 12 11 8 7 11 12 8 5 6 8 12 14 16 18 18 16 13 12 13 13 10 5 8 10 10 9 10 12 12 11 10 12 14 16 20 24 23 25 28 29 32 30 17 13 11 9 10 10 11 13 13 12 12 13 13 11 9 8 8 7 7 6 5 4 4 5 5 5 4 3 3 3
6 6 6 7 8 7 7 8 7 6 8 9 11 11 12 10 7 7 10 9 7 7 7 11 16 18 18 19 18 14 13 13 13 13 14 14 15 16 15 12 11 13 13 11 10 10 9 10 14 19 21 21 26 30 31 29 18 6 7 8 10 11 12 14 14 13 12 12 12 12 10 9 8 8 7 7 6 5 4 4 5 5 4 3 3 3
5 5 5 6 7 7 8 8 7 7 8 10 10 10 10 9 7 8 10 8 11 15 15 16 20 20 19 19 16 13 13 14 15 17 18 18 18 17 17 17 16 15 14 13 11 10 8 7 8 12 18 19 24 29 30 26 19 10 2 3 7 8 7 8 9 10 11 11 11 12 11 10 10 9 7 7 6 5 4 4 4 4 3 3 3 3
4 4 5 6 6 6 6 7 8 8 4 2 6 8 8 8 8 9 10 13 16 19 20 20 20 20 19 19 17 16 17 18 20 20 20 20 19 18 18 18 18 17 15 14 12 11 9 7 7 8 13 17 21 26 29 26 20 15 11 6 2 3 2 1 2 4 7 10 11 12 12 12 11 10 9 8 7 6 5 4 2 1 1 2 2 2
4 3 4 5 5 5 6 7 8 6 1 1 6 9 7 8 9 11 15 18 19 20 22 22 21 20 20 20 20 21 22 22 23 22 21 21 20 19 19 19 18 18 17 15 13 12 10 6 6 6 8 14 17 22 27 27 22 17 15 12 10 9 8 6 6 6 6 9 11 12 13 13 13 12 11 10 9 7 5 4 3 2 2 1 0 1
4 4 4 4 3 4 6 6 6 6 5 7 11 11 11 13 15 16 18 19 19 20 20 20 20 21 21 21 23 24 24 23 24 23 22 22 20 19 19 19 19 19 19 18 14 11 10 7 6 7 5 9 14 18 23 25 23 22 20 18 15 13 10 8 9 9 7 9 12 12 12 12 13 13 12 11 11 9 7 6 6 4 4 4 3 3
3 3 4 5 5 6 9 10 11 12 12 13 13 14 18 21 20 20 20 20 19 19 17 17 20 23 23 22 23 24 24 24 24 23 22 22 21 20 19 20 21 20 20 19 16 12 10 9 8 8 6 5 10 15 20 22 22 24 25 23 21 18 13 9 9 8 6 6 9 10 11 12 12 12 11 11 11 10 9 9 8 7 6 6 5 5
5 6 7 6 8 11 12 13 15 16 16 17 16 17 20 21 20 20 20 19 18 19 18 17 20 22 23 23 22 21 22 24 25 25 23 22 22 21 20 20 21 21 20 19 17 14 12 10 9 9 7 4 5 10 16 20 20 22 25 27 26 20 14 10 9 9 8 7 6 8 9 11 11 10 11 11 11 10 10 10 10 9 8 7 7 6
6 7 8 9 10 11 10 10 13 16 18 20 20 19 20 20 18 17 16 17 19 21 21 21 23 24 24 24 24 23 24 24 25 25 23 21 21 21 19 18 19 20 20 19 16 15 14 12 11 10 9 7 3 5 12 18 20 21 24 26 26 20 14 11 9 8 8 9 9 9 10 11 11 10 10 10 11 11 11 10 10 10 9 9 8 7
2 2 6 10 11 12 14 16 19 21 20 18 17 17 17 18 20 20 18 19 21 23 23 24 25 23 21 21 21 23 25 26 24 23 22 20 19 19 18 17 18 20 20 19 17 16 15 14 13 12 10 10 7 4 7 14 21 24 23 22 21 19 14 12 10 8 8 9 10 11 12 12 11 11 11 11 11 11 11 11 10 10 10 9 9 8
5 5 7 10 12 13 15 17 19 21 19 14 13 15 17 18 22 24 23 23 23 24 25 26 25 21 18 18 19 21 24 26 24 23 22 21 19 18 18 19 20 20 20 19 18 17 15 15 14 13 12 11 10 10 9 10 17 24 24 21 19 17 14 14 14 12 10 10 11 11 12 12 12 12 13 13 12 12 12 12 11 11 10 9 9 9
6 7 8 10 11 12 12 14 16 18 17 15 16 20 21 21 23 25 25 24 24 24 24 25 25 23 20 21 22 21 22 23 23 23 21 19 19 19 19 20 20 21 21 20 18 17 16 15 15 13 13 12 11 13 15 13 14 18 21 21 22 20 15 14 13 10 10 11 12 13 13 13 13 13 14 14 14 14 14 14 14 15 14 13 12 13
6 7 8 9 11 14 16 17 16 15 16 19 23 25 23 22 22 25 26 25 25 25 24 23 24 23 22 23 24 21 19 20 22 22 19 18 20 22 22 21 20 20 21 21 18 16 16 16 15 13 13 13 13 15 17 17 17 18 19 21 22 21 17 15 12 10 10 11 12 13 14 14 14 15 15 15 15 15 15 15 15 17 18 17 16 17
Wind_Direction
244 256 244 264 287 314 328 308 296 303 299 293 291 286 287 288 288 290 291 299 322 294 293 292 295 296 295 293 297 310 315 303 299 313 315 309 312 326 353 3 11 358 354 70 261 230 191 185 179 173 172 174 179 177 175 175 170 168 173 178 184 187 186 186 187 190 191 196 202 200 196 196 196 197 200 200 198 198 201 199 194 198 203 203 205 207
232 262 268 294 333 340 331 314 297 292 284 281 281 283 289 287 292 297 293 289 227 273 292 292 293 293 291 293 296 301 299 299 314 314 311 313 313 322 359 357 353 355 2 35 228 223 198 189 182 176 174 177 181 180 179 179 172 168 172 178 183 185 186 187 188 190 192 197 202 202 202 202 198 197 200 200 197 198 201 198 195 198 201 202 204 207
232 254 283 344 356 333 299 294 282 280 281 279 278 279 286 292 298 297 295 291 186 257 295 296 294 292 289 290 287 285 283 295 311 306 307 308 304 316 341 347 342 348 360 3 283 223 204 194 187 183 179 180 183 181 180 181 173 167 171 179 184 186 187 188 188 189 192 198 203 207 208 205 202 201 204 202 200 201 201 200 200 198 199 200 202 203
267 288 14 356 339 313 292 282 269 273 276 270 277 283 286 303 307 300 306 313 269 268 283 291 292 285 283 276 265 270 272 284 295 295 297 297 303 321 332 345 347 347 351 350 320 235 209 199 192 191 186 180 182 181 179 181 176 169 172 179 184 187 188 190 189 188 190 195 202 208 210 206 205 207 202 197 200 204 204 205 204 203 201 201 203 204
283 316 351 327 304 301 298 289 276 274 282 277 279 284 292 308 307 304 307 307 295 279 261 274 287 280 286 280 258 278 283 279 287 292 292 296 355 340 327 2 1 352 348 336 323 263 213 203 197 198 193 182 180 182 180 180 179 172 171 177 183 185 188 191 190 186 184 187 193 202 207 203 201 202 197 196 201 203 203 206 207 208 207 204 205 206
285 333 347 317 304 301 292 291 290 288 298 290 282 294 309 314 307 302 303 299 296 290 219 243 294 293 304 295 279 285 290 289 289 289 294 319 71 8 349 21 5 356 355 336 323 288 228 208 201 201 201 191 183 182 180 179 180 173 169 175 181 183 186 190 188 185 182 181 185 191 198 202 203 204 202 202 205 203 203 206 207 210 210 207 208 208
290 4 351 311 309 305 289 284 289 301 299 292 310 328 322 311 305 299 301 297 287 295 311 287 290 296 297 287 288 298 299 290 279 285 304 351 59 16 4 16 0 358 356 346 339 310 256 217 207 203 207 204 191 182 179 177 180 175 167 172 181 181 183 187 186 185 181 179 183 188 194 202 210 215 212 207 206 205 204 203 203 207 210 208 208 209
180 312 312 313 309 301 289 291 335 332 298 293 315 326 318 308 305 301 299 293 285 293 289 274 271 280 289 286 289 292 283 265 229 350 317 14 40 12 5 6 359 1 354 349 351 330 294 223 215 207 210 213 201 187 182 178 180 181 170 170 180 183 182 184 185 185 183 181 182 186 191 199 210 217 214 206 206 206 204 205 204 205 206 206 206 208
41 316 323 322 309 298 298 315 333 319 291 296 314 317 309 301 296 294 293 286 289 293 283 280 276 275 286 300 293 263 263 244 128 347 326 28 27 357 355 360 358 359 353 350 352 348 344 220 215 211 212 217 210 196 189 183 182 184 176 170 178 184 183 183 184 184 185 184 183 186 190 196 205 212 211 206 207 206 204 206 206 205 207 205 203 205
318 328 323 312 304 307 317 319 318 306 291 302 313 306 295 288 278 276 282 287 290 280 277 288 293 282 292 308 312 259 261 288 350 335 333 11 14 356 356 356 355 357 355 352 354 2 10 349 212 206 209 217 215 202 193 189 187 187 183 176 179 185 185 183 184 184 186 185 185 188 192 196 201 205 208 206 206 207 204 203 204 205 208 208 204 202
304 298 270 310 326 328 324 314 303 298 299 303 300 293 289 287 278 266 266 277 282 277 279 300 42 291 296 304 300 298 342 2 346 329 333 348 356 2 359 354 355 356 353 351 354 6 20 27 289 207 211 215 207 196 194 194 190 190 188 181 180 186 187 184 185 185 185 186 187 190 194 198 200 202 204 205 205 205 201 201 205 205 204 207 208 204
308 282 165 81 14 355 332 309 298 278 280 291 290 294 297 291 283 272 260 254 266 282 319 55 5 285 283 301 300 306 15 53 20 347 341 340 348 356 352 352 358 356 351 353 355 0 11 16 356 281 232 217 197 190 198 200 195 194 194 186 182 187 188 184 184 185 185 187 190 194 197 200 201 201 204 206 207 205 202 200 202 202 200 205 209 207
312 314 62 88 51 12 345 318 318 289 277 298 301 308 306 297 298 293 283 277 278 286 312 7 333 290 279 288 290 303 29 60 41 12 349 340 344 345 345 351 356 356 354 353 354 355 359 356 343 321 272 229 208 205 204 200 198 199 199 192 185 188 188 184 184 184 185 188 193 197 199 202 203 203 205 208 210 210 206 201 198 198 198 200 205 205
300 98 53 344 124 15 353 343 338 319 316 315 314 319 306 301 304 293 288 287 281 286 297 307 305 285 280 285 291 3 63 69 55 40 7 347 342 337 344 353 355 357 357 355 352 349 349 346 340 325 303 258 229 223 210 201 200 202 205 198 191 189 186 183 183 183 185 189 195 200 201 202 204 206 207 210 213 213 211 205 200 200 199 198 201 202
292 225 48 10 359 353 354 2 330 309 299 294 305 307 288 294 299 289 295 297 293 295 294 291 283 270 282 343 88 98 95 86 65 48 24 357 348 347 353 356 355 353 354 359 353 345 342 338 335 325 310 281 248 233 218 208 203 205 208 204 197 190 184 181 181 181 185 191 197 202 203 203 204 205 206 207 210 211 211 208 204 204 203 200 200 200
281 262 10 357 331 313 335 349 328 304 290 287 311 286 280 310 312 287 289 290 293 294 286 279 267 253 272 284 153 139 117 91 68 53 43 24 12 8 3 356 352 349 351 355 350 344 340 334 330 324 309 287 262 239 222 214 208 209 211 208 201 191 184 181 180 181 186 193 199 203 204 205 205 205 205 205 206 207 207 207 207 209 208 205 202 199
292 292 328 321 305 288 326 328 317 291 294 317 298 290 321 338 306 288 285 277 273 278 277 271 266 259 269 267 184 162 158 105 72 52 43 31 19 13 7 360 350 347 351 352 351 348 341 334 331 329 327 307 280 256 229 216 213 212 211 211 203 189 183 183 182 185 189 194 201 205 207 207 206 207 206 204 203 202 203 202 203 207 208 206 202 196
328 295 300 298 290 311 335 314 295 260 264 290 290 324 345 303 266 267 281 278 271 275 276 274 276 276 279 274 190 191 221 30 41 36 31 23 17 10 6 1 352 349 351 352 356 354 347 342 332 327 333 334 314 282 242 223 220 217 209 205 199 188 185 187 187 188 192 194 201 211 213 210 208 209 207 205 203 201 201 200 198 201 203 204 202 196
338 301 296 247 269 326 332 305 290 238 214 259 287 320 321 278 263 260 266 279 282 280 281 282 283 279 276 279 246 214 270 359 4 8 10 7 7 3 360 358 354 352 349 351 360 359 354 350 340 332 325 314 295 268 245 227 217 210 199 194 194 191 191 193 192 190 189 191 200 213 217 212 210 210 207 205 204 202 203 201 197 198 201 202 202 198
324 297 299 190 271 324 315 283 289 268 237 272 284 280 257 252 284 281 272 281 282 280 284 289 289 283 284 310 9 43 13 355 343 342 345 351 356 354 353 353 352 350 347 352 357 357 358 360 360 354 339 317 284 251 238 229 217 203 193 192 193 196 197 195 194 193 193 193 195 205 212 212 211 209 207 206 203 202 204 202 199 199 201 203 204 201
320 283 285 288 300 307 293 274 310 303 292 290 285 278 273 274 286 281 273 269 271 276 279 285 287 285 334 44 28 4 356 344 336 332 327 333 342 344 344 345 347 346 343 345 345 347 357 15 25 17 4 357 339 293 256 233 216 200 195 196 195 195 195 195 197 200 201 197 193 200 207 209 208 206 206 206 204 204 205 203 201 200 201 204 205 203
347 297 285 291 295 287 284 312 307 293 289 289 286 291 301 306 301 284 271 266 266 274 276 279 278 276 331 36 327 325 334 330 328 326 322 322 323 328 330 331 333 333 329 329 325 318 319 329 3 28 24 29 29 2 321 292 251 215 202 197 202 202 196 200 206 207 206 198 194 202 207 204 202 205 206 204 203 206 207 205 203 203 203 205 206 204
348 289 276 282 287 283 286 294 293 286 283 272 273 296 314 313 313 291 281 286 285 280 283 281 271 270 293 323 316 320 325 326 323 317 312 308 309 315 317 314 312 312 310 305 297 289 289 305 317 348 17 31 60 54 324 313 317 296 257 207 214 225 218 219 228 228 223 210 201 204 206 199 197 204 207 205 205 207 209 207 204 204 206 207 207 205
330 289 288 294 290 284 270 258 245 234 247 244 244 311 325 319 315 299 290 292 285 277 279 275 266 269 286 299 313 318 312 312 309 309 311 309 308 312 313 309 307 307 305 295 281 272 261 246 229 155 92 58 66 97 203 282 314 310 317 319 263 258 253 255 273 272 261 251 233 220 207 197 196 199 203 205 206 206 208 209 208 209 212 213 209 206
323 309 324 314 306 304 258 226 198 196 253 292 310 313 317 316 309 300 290 284 274 268 269 268 266 273 282 283 284 295 305 314 325 335 337 334 334 334 329 323 318 314 308 298 284 268 256 244 219 177 133 131 119 114 135 147 249 232 341 346 338 328 283 266 278 272 258 252 245 232 210 197 196 194 197 203 204 203 203 204 205 208 216 220 214 208
296 302 314 303 304 310 303 304 321 311 299 307 307 302 306 307 301 299 292 278 270 272 271 268 272 283 290 292 295 306 325 339 348 352 350 345 345 344 340 337 332 326 318 307 293 276 259 252 236 201 179 173 151 113 101 75 34 54 67 31 3 360 337 291 263 255 248 239 233 224 209 201 197 193 197 201 204 205 203 201 201 202 205 215 216 210
288 285 284 277 280 289 293 300 310 309 298 293 295 297 298 297 293 289 279 271 278 285 275 268 279 288 291 295 303 326 351 351 345 347 346 343 341 339 337 337 335 331 326 318 310 299 280 265 264 240 193 182 165 108 344 338 11 33 52 53 29 5 355 344 333 303 273 256 236 217 209 205 200 198 200 201 204 205 203 203 204 204 203 206 212 213
299 284 281 276 273 277 287 295 298 295 289 289 294 295 294 294 289 276 267 273 286 288 274 276 287 289 291 301 317 341 354 346 341 344 342 337 335 333 334 335 333 331 332 332 332 330 326 318 306 291 259 217 169 155 225 254 332 25 33 46 45 21 7 4 9 11 351 330 336 261 190 184 191 201 199 200 203 201 199 202 205 204 203 203 207 212
305 285 285 281 279 284 288 289 290 288 285 287 290 292 293 291 281 273 272 276 279 276 278 290 295 294 299 317 333 343 345 341 339 340 336 335 334 330 331 334 332 331 334 335 336 339 341 340 328 310 293 278 251 202 206 203 173 106 23 16 23 30 22 11 13 14 4 355 358 1 19 127 158 181 186 191 194 193 194 199 204 205 203 202 204 210
292 284 309 302 291 291 289 287 289 288 287 288 289 290 289 282 277 277 278 279 279 279 285 295 297 295 302 329 340 334 336 337 335 334 333 334 334 327 324 329 331 333 336 335 332 332 337 338 333 325 313 296 275 239 208 192 181 172 170 275 333 12 18 11 12 11 2 355 352 347 346 61 138 152 165 177 184 189 194 197 202 207 204 201 201 205
292 296 320 314 296 290 290 288 287 288 293 295 291 285 280 277 278 281 284 287 289 289 293 296 293 290 297 324 326 322 326 326 323 326 326 327 330 328 320 319 325 330 334 338 334 326 325 330 332 329 322 311 293 260 231 227 215 183 171 183 192 168 38 13 9 6 359 352 346 342 342 355 121 139 144 150 167 180 186 193 200 206 206 203 200 201
292 290 303 305 292 290 298 298 296 298 298 291 284 282 280 282 287 292 295 296 295 296 296 293 290 294 312 324 317 314 319 319 316 320 321 320 323 324 321 318 320 324 329 335 338 331 324 326 330 329 323 316 304 280 253 243 233 200 174 168 165 161 159 157 137 26 360 340 329 338 356 5 30 100 121 127 146 160 166 179 189 199 206 206 204 202
279 285 296 296 288 292 303 308 308 307 300 292 290 315 315 298 296 298 300 300 299 299 297 292 294 305 313 313 310 311 314 315 315 317 316 315 314 313 316 320 320 323 325 326 333 336 331 326 327 327 325 319 309 295 269 243 233 221 196 170 162 163 158 155 161 169 169 249 290 314 30 46 49 57 81 105 125 138 144 153 161 179 199 207 208 207
269 272 282 286 286 293 302 309 307 295 291 310 68 69 305 304 303 303 303 302 301 295 287 289 296 303 306 306 305 306 308 309 310 308 301 301 305 305 313 321 320 323 323 322 326 331 332 329 327 326 326 321 314 305 286 253 236 227 208 181 169 168 159 157 167 174 168 180 234 287 71 109 98 84 76 82 102 120 124 123 128 147 165 184 202 209
266 267 277 282 278 288 302 307 295 281 300 351 318 289 301 307 307 305 299 292 291 289 288 290 294 298 303 302 299 299 301 303 301 296 294 295 293 292 309 320 321 320 321 321 322 323 328 331 328 326 327 323 317 312 297 266 242 226 205 191 184 178 168 161 167 177 185 185 184 178 111 95 103 102 96 90 91 106 117 117 119 134 142 148 166 189
264 269 275 281 276 284 297 292 279 288 309 305 291 293 306 306 306 309 299 290 291 294 293 291 291 295 299 297 296 298 301 301 296 289 288 287 268 238 290 307 309 312 317 319 317 318 325 330 329 326 326 325 322 321 310 278 249 231 210 200 191 184 180 167 163 173 185 185 173 161 144 116 101 99 104 108 107 107 112 117 120 125 137 143 150 164
250 269 279 288 281 281 287 282 283 296 300 296 300 324 330 315 314 316 301 293 294 289 284 284 287 293 297 296 299 303 304 301 294 289 291 281 223 208 261 281 282 285 297 307 310 312 318 324 329 329 327 327 326 327 323 297 255 231 215 204 192 184 185 180 172 175 179 179 172 162 151 140 120 100 99 106 111 113 111 110 109 106 114 134 146 158
233 272 287 289 280 280 288 286 290 293 290 302 340 345 329 318 317 316 300 293 290 285 282 284 286 290 295 299 301 304 305 299 289 294 303 263 201 227 251 255 260 261 267 283 298 309 314 319 327 332 332 330 327 328 330 316 269 223 206 198 186 181 185 183 180 178 173 168 165 160 159 155 140 123 116 108 104 107 108 108 108 103 103 110 114 130
255 273 274 272 273 278 278 276 281 282 279 300 328 331 325 322 329 325 299 287 294 309 291 279 284 290 296 299 300 299 297 291 284 294 307 278 254 274 277 261 255 254 254 261 278 298 309 315 323 329 332 332 329 327 330 324 293 221 192 181 176 178 184 181 177 176 169 160 157 158 159 158 151 144 135 123 114 108 102 101 102 100 104 111 109 114
263 272 268 267 270 273 271 273 275 268 269 293 312 317 317 322 332 312 283 280 318 333 304 287 293 298 298 297 295 289 282 281 285 295 305 301 293 293 290 276 264 256 254 258 263 273 290 302 316 327 331 331 331 327 326 326 317 263 179 167 174 178 178 174 173 175 173 166 161 161 162 163 163 160 151 137 131 123 106 92 86 83 87 94 92 89
265 265 263 263 266 268 271 272 271 268 278 293 298 301 311 316 302 272 270 297 323 316 306 300 298 296 294 291 289 284 279 283 289 292 295 295 292 291 289 283 278 268 258 255 251 247 259 275 294 320 330 332 332 329 325 324 326 329 335 167 171 166 161 167 175 180 180 177 173 170 171 173 173 172 170 161 151 145 129 107 86 71 65 62 63 65
263 260 252 250 259 269 269 272 281 285 292 303 287 288 295 291 273 269 290 311 312 304 301 299 294 292 292 287 284 284 284 285 288 289 289 291 289 289 288 283 283 283 272 257 242 226 229 254 268 301 334 341 336 330 326 324 327 335 341 343 24 75 43 4 218 210 201 193 190 186 184 184 184 182 183 181 175 172 166 151 134 111 80 55 42 35
272 270 255 245 254 272 267 264 274 275 190 80 306 294 278 269 280 298 305 302 299 298 298 296 293 292 291 287 284 285 286 287 288 287 287 288 288 288 287 281 281 289 288 274 251 226 216 232 253 270 330 353 344 331 326 326 330 335 335 333 344 355 346 325 305 284 240 213 208 204 197 192 190 191 193 192 191 190 189 188 194 205 206 201 261 314
253 234 260 273 272 272 263 251 258 273 290 310 310 299 287 288 295 300 301 298 298 300 299 297 297 295 293 292 289 288 287 286 287 287 287 287 287 287 287 284 281 286 291 286 270 242 220 219 236 249 294 355 351 334 326 325 327 329 327 324 330 338 338 321 300 284 246 219 217 216 211 206 202 203 203 198 195 199 205 209 216 230 239 240 247 259
241 227 272 285 271 265 268 269 275 285 292 297 299 296 295 298 298 296 296 296 297 299 298 297 299 298 297 296 294 292 290 288 286 286 286 286 287 286 286 285 283 286 288 286 278 260 238 230 232 238 258 331 350 335 323 318 318 319 317 317 319 319 317 314 305 291 266 234 221 217 220 222 219 217 216 209 205 207 210 211 217 228 239 243 248 256
260 264 269 272 273 273 270 267 271 281 289 294 297 296 296 298 299 299 297 295 293 296 296 294 293 294 294 293 291 289 288 289 287 285 284 284 285 286 285 284 283 284 284 284 283 276 264 252 241 232 233 260 334 333 319 313 313 311 308 311 313 306 293 292 303 302 300 295 270 246 238 235 233 230 226 223 222 224 224 220 219 223 230 236 241 248
253 259 261 267 278 282 278 274 278 288 297 301 301 298 295 295 298 301 301 299 296 295 294 291 289 290 290 289 287 284 283 283 284 284 284 283 282 283 283 281 281 283 283 282 283 283 277 267 256 243 231 226 243 319 315 306 303 300 299 304 309 305 291 287 296 301 305 304 293 278 266 255 250 246 241 238 237 236 236 231 226 228 231 234 237 240
295 301 281 276 277 277 280 286 293 296 299 298 296 296 300 302 301 300 299 298 295 293 292 290 287 286 286 284 284 284 282 280 279 281 282 281 280 281 281 280 281 282 282 282 283 282 278 270 264 257 244 230 218 233 292 296 294 293 292 294 300 303 298 294 297 299 297 295 289 282 275 268 264 260 256 254 249 243 240 237 234 234 234 234 238 240
303 294 288 289 287 282 282 293 305 307 302 293 288 294 301 303 301 301 301 298 295 292 291 289 288 287 284 278 276 279 280 278 275 275 277 278 277 277 277 279 281 282 281 282 282 280 277 272 266 258 249 239 220 212 233 266 283 289 292 295 297 297 293 293 298 296 289 286 284 278 274 272 270 268 267 267 262 255 251 247 242 241 245 245 239 233
283 281 291 296 291 289 293 305 315 311 303 300 301 302 304 304 301 300 299 296 294 293 292 291 291 291 287 281 277 275 276 276 274 273 273 274 274 274 274 276 279 280 281 281 279 278 276 273 269 260 249 241 225 217 224 236 256 274 284 292 296 294 285 280 283 278 274 280 280 275 273 271 270 272 273 272 270 268 265 259 247 241 246 250 243 233
271 278 290 291 285 289 297 305 310 305 297 298 301 303 305 306 301 299 298 297 296 297 297 295 295 294 291 286 282 276 272 273 274 272 272 274 274 272 272 273 275 278 280 279 277 276 275 272 270 262 250 241 232 227 230 234 241 253 264 274 281 281 274 266 265 263 269 278 278 275 275 272 269 271 271 269 270 271 270 268 256 242 239 240 239 236
Height
781 789 789 785 780 776 776 777 778 779 780 783 783 782 779 778 773 765 761 754 755 767 762 754 754 752 747 740 733 729 726 727 726 725 724 720 717 717 721 723 723 724 722 720 722 723 725 727 729 731 733 736 739 740 741 742 743 745 749 753 755 758 759 761 763 764 766 768 769 771 773 774 776 777 778 780 781 782 784 784 785 786 787 789 790 791
785 793 786 776 775 775 777 778 779 780 780 781 782 781 777 775 770 760 757 753 753 765 762 752 753 751 744 738 731 728 728 728 726 726 725 722 719 718 720 724 723 722 720 720 723 723 724 726 728 729 731 733 735 737 739 740 741 743 746 750 753 756 757 759 761 763 764 766 768 769 771 773 774 776 777 778 780 781 782 784 785 786 787 788 788 790
789 788 778 771 772 776 778 778 780 781 781 780 778 779 778 771 766 760 753 750 755 764 762 753 755 751 741 736 732 728 728 727 723 723 723 722 722 720 720 724 722 721 720 721 722 721 722 724 725 727 727 729 732 733 736 738 739 741 744 748 751 754 756 758 760 761 763 765 767 769 770 772 774 775 777 777 779 781 781 782 784 785 786 787 787 788
788 778 771 771 774 777 779 777 780 781 778 777 775 777 777 768 769 769 758 752 755 758 759 756 755 749 738 733 730 725 722 723 720 719 718 717 720 722 721 722 722 722 722 722 721 720 720 721 723 725 724 726 729 731 733 736 738 739 742 745 748 752 754 756 758 760 762 764 766 768 770 771 773 774 775 776 778 779 780 782 783 783 784 785 786 788
785 773 768 772 775 777 780 778 777 780 778 772 770 774 774 768 770 770 761 755 755 751 750 755 759 749 737 736 734 725 720 721 718 718 718 715 717 721 720 721 723 722 721 722 721 719 718 719 721 723 724 724 726 728 730 733 736 737 739 743 746 749 753 755 757 758 760 763 765 767 769 770 772 773 773 774 776 777 778 780 781 782 783 784 785 786
780 772 770 776 777 776 780 778 773 777 779 773 767 766 768 769 768 766 762 760 765 761 749 756 774 763 740 738 739 728 724 724 719 719 720 716 718 722 721 723 723 720 719 719 719 718 717 718 720 723 725 725 724 726 728 731 734 735 737 741 744 747 750 752 755 757 759 760 763 765 767 768 769 769 770 771 773 774 776 777 778 780 781 782 783 784
777 773 774 779 778 776 778 776 770 773 780 778 766 758 763 767 767 766 763 765 773 768 751 753 775 774 752 741 736 730 731 728 722 722 720 716 720 724 724 724 723 721 719 718 717 717 716 718 721 723 725 726 726 726 728 730 733 735 736 739 743 745 747 750 752 754 756 758 760 762 764 765 766 766 767 769 770 771 772 774 775 777 778 780 781 782
776 776 777 778 778 778 777 773 768 770 781 778 761 758 765 766 766 765 763 766 764 759 754 748 755 769 763 744 732 732 735 731 726 726 721 718 722 726 725 724 723 723 720 718 717 716 717 719 721 724 725 727 727 728 729 731 732 734 735 737 741 744 745 747 750 752 754 755 757 759 761 763 764 764 765 766 767 768 769 770 772 774 775 776 777 779
773 779 781 780 782 780 774 770 766 769 779 772 758 761 765 764 765 762 761 763 756 760 770 752 743 765 766 739 726 731 736 734 730 729 724 721 726 728 727 725 723 722 721 718 718 717 718 719 721 723 725 727 728 728 730 731 732 734 735 736 739 742 744 745 748 750 752 753 755 757 759 760 761 761 762 763 764 765 766 767 769 771 772 772 773 775
773 777 778 781 784 781 773 770 766 770 774 765 760 762 760 758 758 757 762 760 757 770 777 755 746 767 767 740 730 736 739 737 733 729 725 724 728 730 728 727 725 723 722 720 719 719 719 720 721 722 724 726 727 728 730 731 732 734 735 736 738 740 742 743 745 748 750 752 753 755 756 757 758 758 759 760 761 762 763 765 767 768 769 770 771 772
774 771 773 780 783 778 775 771 766 767 768 763 764 763 759 757 751 754 758 758 770 780 767 751 751 766 771 750 733 735 737 737 736 734 731 729 729 732 731 729 727 725 724 722 721 721 721 723 723 723 723 725 726 728 730 732 732 733 734 735 736 739 740 741 743 746 748 750 751 752 753 753 754 755 756 757 757 758 760 763 764 765 767 769 770 772
776 773 775 779 779 776 775 772 764 762 763 764 765 763 766 765 755 756 756 759 783 784 759 751 752 761 773 757 733 729 732 736 740 740 739 737 735 735 733 730 728 727 726 724 724 724 724 725 725 725 725 725 726 728 730 731 732 733 733 734 735 737 739 740 742 744 746 748 749 749 750 750 751 752 754 754 755 757 759 761 763 764 766 768 770 771
781 776 778 779 777 777 780 777 769 763 761 764 765 767 780 782 777 782 777 772 780 769 751 752 758 766 766 747 731 731 734 738 741 742 743 742 740 738 735 732 730 729 728 726 726 726 725 726 725 725 726 726 727 728 729 730 731 732 733 733 733 734 737 739 740 742 744 745 746 747 747 748 749 751 752 754 755 756 757 759 761 762 764 766 767 768
792 782 780 782 780 778 781 785 786 778 771 771 771 777 789 792 799 808 796 784 780 764 749 748 761 774 762 737 730 734 737 740 740 741 742 741 741 739 734 732 732 731 731 730 729 727 726 726 726 726 726 727 727 728 728 729 730 731 732 732 732 733 735 737 739 740 742 742 744 744 745 746 748 750 752 753 754 755 756 756 758 760 761 762 763 764
809 799 785 785 786 781 782 786 788 786 779 774 768 774 784 784 796 806 796 789 785 771 760 756 764 772 760 739 732 734 736 737 738 738 739 739 739 737 734 734 735 734 733 732 733 732 729 727 727 727 727 728 728 728 728 728 729 730 730 731 731 732 733 736 737 739 739 740 741 742 743 745 747 749 750 751 752 752 753 754 756 757 758 759 760 762
811 804 784 781 783 781 786 783 780 785 782 771 765 773 779 773 780 792 790 784 785 782 775 767 761 753 741 730 727 733 736 735 738 738 738 740 738 736 737 736 737 736 734 734 734 734 733 731 729 728 728 728 728 728 727 728 729 729 729 729 730 731 732 733 735 736 737 738 739 740 742 744 746 747 747 748 749 750 751 752 753 754 756 758 759 760
815 807 786 784 783 778 785 783 778 786 785 774 774 778 773 766 773 789 789 778 783 793 779 762 754 742 734 731 726 732 736 735 739 739 738 741 739 738 740 738 737 736 735 735 734 734 735 734 732 730 729 729 728 728 727 727 728 728 728 728 729 730 731 732 732 733 734 735 737 740 741 743 744 745 745 746 747 748 749 749 751 752 753 755 756 758
822 816 793 789 792 781 779 782 775 775 779 782 783 776 769 769 771 782 795 792 793 797 774 757 756 750 748 745 731 731 737 736 738 740 740 741 740 740 740 738 737 735 735 735 734 734 735 735 734 732 731 731 730 729 728 727 727 727 727 727 728 728 729 730 731 732 733 735 738 740 741 742 743 743 743 744 745 746 747 747 748 749 751 752 754 755
820 822 802 789 795 788 778 783 781 770 771 778 777 771 776 789 786 781 794 802 801 799 781 763 758 752 749 742 730 734 743 741 741 741 742 742 740 740 739 738 737 736 736 736 734 736 736 736 736 734 732 732 731 731 729 728 727 726 725 725 726 727 728 729 729 730 730 731 734 738 740 741 741 741 742 743 743 744 745 746 746 747 748 750 751 753
817 825 815 792 790 794 785 786 790 782 774 772 771 768 772 785 791 784 785 790 794 798 790 777 766 753 742 735 734 742 746 744 744 743 742 742 741 740 739 739 738 737 737 737 737 737 737 738 736 734 734 732 731 731 729 728 726 724 724 724 724 725 726 726 727 727 726 724 726 732 737 739 739 739 740 741 742 743 743 744 745 746 747 748 750 751
816 822 823 802 791 797 793 786 790 791 786 782 782 779 775 778 783 784 783 779 784 795 794 790 780 756 740 740 743 746 746 745 745 744 743 742 741 741 740 740 739 739 739 739 739 739 738 737 735 734 734 731 731 731 730 728 726 723 723 722 721 722 723 724 725 725 722 720 722 727 732 735 736 737 738 739 740 741 742 743 743 745 746 747 748 750
823 825 825 815 805 802 794 785 786 789 789 789 789 786 787 789 791 799 796 778 776 786 787 792 788 759 740 745 746 745 746 745 744 745 745 743 742 742 741 740 740 740 740 740 740 739 738 736 734 733 732 730 728 730 731 730 726 723 722 720 721 721 722 722 722 722 721 720 721 725 729 732 734 736 737 737 739 740 740 742 742 743 745 746 747 748
827 827 825 819 807 797 789 784 785 787 786 789 789 786 789 794 797 808 808 791 786 786 781 787 788 761 741 743 746 747 747 746 746 747 747 746 744 743 742 739 738 738 739 740 739 738 737 735 734 732 731 730 727 727 731 732 729 727 724 722 722 722 722 722 722 723 724 723 722 723 727 729 731 734 735 736 737 738 739 740 741 742 743 744 745 746
824 822 821 816 800 787 784 784 785 788 789 789 787 786 792 796 799 803 802 799 801 799 793 796 790 767 747 743 749 752 748 745 746 745 745 744 742 742 742 739 737 736 737 738 738 738 736 734 733 731 730 730 729 729 731 732 732 730 727 725 724 723 723 723 723 725 726 724 724 725 726 728 730 732 733 735 736 737 738 738 739 740 741 742 744 745
827 822 823 823 813 801 796 793 792 792 792 791 791 793 797 799 801 801 798 799 803 799 795 796 787 767 750 743 747 750 747 747 750 750 750 750 747 747 746 743 741 739 737 736 736 737 737 734 731 729 728 728 729 730 731 732 733 731 728 726 725 725 724 723 724 726 727 726 728 728 728 728 729 730 731 733 734 735 736 737 738 739 740 741 742 743
831 828 828 831 829 823 817 810 806 803 801 800 800 802 804 804 806 806 806 807 805 797 790 788 779 764 752 748 747 751 756 760 761 761 760 759 757 757 754 752 750 746 742 738 734 734 736 735 730 727 727 726 727 728 729 730 731 729 727 725 724 724 725 723 724 726 727 728 728 728 727 727 727 728 730 731 732 734 735 736 737 738 738 740 741 742
830 829 828 830 828 824 819 813 810 810 811 810 809 808 808 808 807 809 812 810 804 798 792 784 777 770 763 759 757 763 774 776 771 769 768 766 765 762 759 758 755 751 748 743 738 735 735 736 733 728 726 725 724 725 727 727 727 727 726 725 725 725 725 725 726 727 728 729 728 727 726 726 726 727 728 730 731 732 734 735 736 737 737 739 740 741
832 831 827 826 824 819 816 813 812 813 815 814 813 812 812 811 810 812 813 807 803 804 796 782 779 780 774 771 773 779 784 782 778 777 775 772 769 766 763 761 758 755 752 748 745 742 740 740 740 737 732 728 725 724 725 725 725 724 725 726 728 729 728 728 727 727 728 728 727 727 726 725 726 726 727 728 730 731 732 734 735 736 736 737 739 740
837 834 826 824 823 818 816 814 812 813 814 813 813 813 812 812 813 813 810 805 804 804 795 784 786 788 785 787 792 791 789 787 784 781 778 775 773 769 766 765 762 758 754 752 750 748 746 746 745 744 739 734 730 727 724 723 722 722 724 726 727 729 729 728 727 727 728 728 728 727 726 726 727 727 727 728 728 729 730 732 734 734 735 736 737 739
836 830 823 825 825 820 817 814 812 813 813 812 812 811 811 811 810 808 806 801 800 799 793 789 792 792 790 795 797 792 790 789 786 783 781 778 776 772 767 766 765 762 758 755 752 749 749 749 747 744 740 735 732 730 726 723 721 719 721 723 726 728 728 727 727 727 729 730 730 728 728 728 728 727 727 728 728 728 729 730 732 733 734 734 735 737
835 830 825 826 826 819 814 812 812 813 813 814 813 809 807 806 804 804 803 800 799 799 795 794 796 790 785 791 795 792 790 788 785 784 782 779 777 774 769 767 767 765 762 759 756 751 748 748 749 746 743 738 733 730 727 725 722 720 719 721 724 726 726 727 728 730 731 732 732 731 731 731 730 728 728 728 728 728 728 729 731 732 733 733 734 736
837 833 828 828 828 819 811 812 812 811 812 812 809 804 803 805 805 804 803 801 801 800 799 798 796 789 785 790 794 792 790 789 786 784 782 779 778 775 772 770 768 766 763 762 760 756 751 748 749 747 745 741 735 730 727 726 725 723 720 720 720 721 723 726 729 731 732 734 734 734 733 733 732 729 728 728 729 728 728 728 730 731 732 733 734 735
836 835 831 830 828 818 812 814 813 813 815 809 802 803 807 808 807 804 802 801 800 800 803 802 796 792 790 791 791 791 791 790 787 785 784 782 778 775 774 773 771 768 766 763 761 760 757 752 749 747 744 741 735 729 725 723 724 724 722 720 718 718 719 723 727 730 733 735 736 734 733 733 732 731 729 729 730 729 728 728 729 731 732 733 734 735
835 834 831 828 828 823 816 815 817 820 819 809 802 805 807 805 805 805 803 802 802 801 802 800 796 794 792 789 789 790 788 787 786 784 782 781 779 777 776 775 774 772 770 766 763 761 760 756 752 749 745 741 735 729 723 721 721 723 722 720 719 719 718 719 723 728 732 734 735 735 734 733 733 732 731 731 731 730 729 729 730 731 732 733 734 735
834 833 830 827 828 825 817 818 827 823 809 802 803 802 800 801 803 805 803 801 800 798 796 796 794 791 788 788 788 787 784 783 783 781 779 777 777 777 777 777 776 774 772 770 766 763 760 758 754 751 747 742 736 729 723 719 719 719 718 718 719 720 719 718 720 725 730 733 734 736 736 734 733 733 733 733 733 732 730 730 731 731 732 733 734 735
834 832 830 827 827 825 822 824 827 816 801 798 801 798 798 803 805 806 805 798 795 797 795 792 790 786 786 787 785 782 781 780 777 776 774 773 773 775 776 776 775 774 772 770 768 765 762 759 756 753 749 744 738 731 723 719 718 717 715 716 717 718 720 720 720 723 729 732 734 735 736 736 735 734 734 734 735 734 733 733 733 733 733 733 734 734
833 832 830 830 829 827 827 822 816 812 805 800 799 799 801 805 807 812 812 800 792 794 791 787 786 785 785 784 781 780 779 776 773 769 766 766 770 773 773 772 772 771 770 768 767 765 763 760 757 753 750 745 740 733 726 721 717 715 713 714 715 716 718 720 721 724 728 731 732 734 735 736 736 735 735 735 736 736 735 735 735 734 734 734 734 734
833 831 832 836 832 827 828 826 822 824 816 801 798 802 804 804 805 813 815 801 787 785 784 783 785 785 783 782 779 777 777 776 771 764 760 764 768 769 769 768 768 767 766 765 764 762 761 760 756 753 750 746 741 736 729 722 717 713 713 713 714 716 718 720 723 725 727 728 731 732 734 735 735 735 736 736 736 737 736 736 736 735 735 735 735 735
832 830 829 833 832 827 831 832 828 825 815 801 799 803 803 804 804 811 816 799 779 777 782 782 783 782 780 779 777 776 777 776 767 759 757 762 764 763 763 763 763 763 762 761 760 759 758 757 755 752 749 746 743 738 731 724 718 713 712 713 714 716 718 721 724 725 725 727 729 731 732 734 735 736 736 736 737 737 737 736 736 736 736 736 735 736
829 829 828 831 831 829 831 830 823 815 807 800 802 803 803 802 805 817 819 795 772 774 781 779 778 778 776 776 774 773 773 769 761 755 756 758 758 757 757 757 758 758 757 756 756 755 755 754 753 752 749 746 743 740 734 728 721 716 713 713 714 716 718 720 723 724 725 727 728 730 732 733 735 736 736 737 737 738 737 737 736 735 736 735 735 735
829 830 831 832 831 829 830 829 820 809 802 800 802 803 802 804 810 815 806 783 772 776 778 777 777 776 774 774 772 768 765 761 757 755 755 755 754 753 752 752 752 752 752 752 752 752 752 752 751 750 748 745 743 741 737 731 724 720 717 715 715 716 718 720 722 723 725 727 728 730 732 733 735 735 736 737 737 737 737 737 736 736 735 735 735 736
832 832 831 830 829 826 824 826 823 812 801 800 803 801 802 808 809 799 784 775 777 779 775 775 776 773 771 770 768 764 760 757 756 755 753 753 751 750 749 748 747 747 748 748 748 749 749 748 748 747 745 743 742 740 738 734 727 723 720 718 716 716 718 720 723 725 726 727 729 730 731 733 734 735 736 736 736 736 736 736 736 736 735 735 735 735
831 834 830 823 823 824 824 829 833 821 801 797 801 800 800 802 797 786 779 778 779 777 773 771 769 768 767 765 761 760 757 755 754 752 750 750 748 747 746 744 743 743 743 743 745 746 745 745 745 744 742 740 740 739 737 734 730 726 723 720 718 718 719 721 724 725 726 727 728 729 730 731 733 734 734 734 734 735 735 735 735 735 735 735 735 735
828 831 829 819 818 824 824 821 818 807 794 794 800 799 795 793 789 786 784 778 773 774 773 768 764 764 764 761 758 755 753 752 751 749 747 746 745 744 743 741 740 740 739 739 740 742 742 741 740 740 739 737 738 739 737 734 731 728 725 721 720 720 721 723 724 725 726 726 726 728 729 730 731 732 732 732 733 733 733 734 734 734 734 734 734 734
823 823 826 822 820 820 816 807 800 796 794 797 798 795 791 788 786 786 785 780 774 773 772 768 765 764 763 762 759 755 752 750 747 745 744 742 740 741 740 739 737 737 737 736 736 737 739 737 736 737 736 734 734 737 737 735 733 729 725 722 721 722 722 724 725 725 724 724 725 726 727 727 728 729 730 730 731 731 731 732 733 733 733 733 733 733
819 820 824 823 820 815 808 801 798 797 795 794 794 793 790 786 784 783 782 780 776 772 770 769 767 763 762 762 759 756 754 751 746 742 740 739 737 736 737 736 735 734 733 733 732 733 734 734 733 733 733 732 732 734 735 735 733 731 727 723 723 724 724 723 724 723 723 723 723 724 725 725 726 727 727 728 728 729 729 730 731 731 731 731 731 731
816 819 821 820 820 818 810 800 795 794 792 790 790 788 785 783 782 781 781 778 774 771 769 767 764 761 759 758 756 752 750 749 746 741 737 735 733 732 731 732 731 731 730 729 729 730 730 730 730 729 730 730 730 731 733 734 732 731 728 725 724 724 724 723 722 722 722 722 722 723 723 723 723 724 724 725 726 726 727 727 728 728 728 729 729 729
814 819 820 817 816 816 808 797 791 790 790 791 790 786 782 781 779 778 778 777 772 769 765 761 759 756 754 754 753 750 745 743 743 740 735 732 730 728 727 727 727 728 728 726 727 727 727 726 726 726 727 728 728 729 731 732 731 729 728 726 724 723 722 721 721 721 721 721 722 722 722 721 721 722 722 722 722 723 723 724 724 725 725 726 726 727
816 819 818 815 812 808 801 794 791 788 785 786 788 786 783 782 778 773 772 771 768 765 761 755 752 751 749 748 748 746 742 739 737 735 733 729 726 724 724 723 724 725 725 724 724 724 724 723 723 723 724 725 726 727 728 730 730 728 726 726 725 723 722 721 720 720 720 720 720 720 719 719 719 718 718 718 718 719 719 720 721 722 722 723 724 725
818 818 816 816 814 806 798 796 798 795 787 780 781 782 781 779 776 770 767 764 761 758 754 749 746 744 743 741 739 739 738 735 732 731 729 725 723 722 721 721 722 722 722 722 721 721 721 721 720 720 721 722 723 724 725 726 728 728 726 725 723 722 722 720 719 719 719 718 718 718 717 717 716 715 715 715 715 715 715 716 717 718 720 721 721 722
817 817 817 818 814 804 797 796 799 800 793 783 779 778 776 774 771 766 761 757 754 751 748 745 741 739 737 735 733 733 733 730 728 727 725 722 721 719 718 718 719 719 719 719 719 718 718 718 717 717 718 719 719 720 720 722 724 724 725 724 722 721 720 719 718 717 716 716 716 716 716 715 714 714 713 713 713 713 712 712 712 713 714 716 717 718